STARLINK-35158

Last updated on Wed Dec 10 2025 00:02:05 GMT+0000 (Coordinated Universal Time)

1 66381U 25257B 25343.52945369 .00071080 00000+0 17650-2 0 9991 2 66381 53.1589 279.7799 0001545 77.0925 283.0252 15.39713572 5877
UTC large
Height (km)
Speed (km/s)
/
Latitude / Longitude
Inclination (degrees)
Orbital Period (minutes)
Azimuth
Elevation
Range (km)
Doppler Factor

Next 0 passes for location: London (51.5072 / 0.1276)

Sorry there are no passes over London.